Regional Weather Roundup
Issued by NWS Northern Indiana

Home | Current Version | Previous Version | Graphics & Text | Print | Product List | Glossary On
Versions: 1 2 3 4 5 6 7 8 9 10 11 12 13 14 15 16 17 18 19 20 21 22 23 24 25 26 27 28 29 30 31 32 33 34 35 36 37 38 39 40 41 42 43 44 45 46 47 48 49 50
397
ASUS43 KIWX 232201
RWRIWX

KIWX WEATHER ROUNDUP
NATIONAL WEATHER SERVICE NORTHERN INDIANA
600 PM EDT SUN JUL 23 2017

NOTE: "FAIR" INDICATES FEW OR NO CLOUDS BELOW 12,000 FEET WITH NO
SIGNIFICANT WEATHER AND/OR OBSTRUCTIONS TO VISIBILITY.

* THESE STATIONS ARE NOT UNDER NWS QUALITY CONTROL. THEY ALSO MAY NOT
  REPORT WEATHER SUCH AS PRECIPITATION OR FOG.

INZ001>027-232300-
NORTHERN INDIANA

CITY           SKY/WX    TMP DP  RH WIND       PRES   REMARKS
GARY*          PTSUNNY   86  66  51 NE9       29.78R
MICHIGAN CITY* FAIR      81  64  57 NE6       29.78S
SOUTH BEND     FAIR      83  64  52 NW13      29.79R
GOSHEN         FAIR      85  63  47 NW8G20    29.77S
MONTICELLO*    PTSUNNY   83  71  68 S7        29.78F
WARSAW*        FAIR      84  64  51 NW9       29.78R
FORT WAYNE     PTSUNNY   79  66  64 N13G20    29.79R THUNDER

$$
INZ028>050-232300-
CENTRAL INDIANA

CITY           SKY/WX    TMP DP  RH WIND       PRES   REMARKS
LAFAYETTE      FAIR      86  70  58 NW8       29.79S
KOKOMO*          N/A     77  69  76 SW7       29.81F
MUNCIE*        FAIR      83  70  64 W7        29.78F THUNDER
INDIANAPOLIS   FAIR      78  70  76 W7        29.82S

$$
MIZ043>046-050>051-056>058-064>065-071>073-077>080-232300-
SOUTHWEST LOWER MICHIGAN

CITY           SKY/WX    TMP DP  RH WIND       PRES   REMARKS
BATTLE CREEK   FAIR      84  64  50 NW13      29.77S
BENTON HARBOR  FAIR      79  66  64 VRB5      29.79R
COLDWATER*     FAIR      84  63  48 NW10      29.77R
HILLSDALE*     CLOUDY    79  68  69 N3        29.77S
HOLLAND        PTSUNNY   77  68  73 N8        29.79S
GRAND RAPIDS   PTSUNNY   82  64  54 NW10      29.76S
KALAMAZOO      FAIR      85  61  44 NW14G20   29.77R
STURGIS*       FAIR      83  66  56 N7        29.77R
THREE RIVERS*  FAIR      83  64  52 NW10      29.78R

$$
OHZ001>008-015>018-024>025-232300-
NORTHWEST OHIO

CITY           SKY/WX    TMP DP  RH WIND       PRES   REMARKS
DEFIANCE       PTSUNNY  N/A N/A N/A CALM      29.76F
FINDLAY        FAIR      85  68  56 W8        29.75R
TOLEDO EXPRESS FAIR      70  69  97 CALM      29.75F
TOLEDO METCALF LGT RAIN  72  70  93 E5        29.77F
LIMA           FAIR      82  74  76 VRB6      29.77S

$$
AND FOR LAKE MICHIGAN COASTAL AND OPEN LAKE BUOY OBSERVATIONS

STATION/POSITION TEMP    WIND        PRES    VSBY  WAVE
                 AIR SEA DIR/SP/G                  HT/PER
                 (F)     (DEG/KT/KT) (MB)    (MI)  (FT/S)
CALUMET HARBOR    80      50/  7/  9 1007.8R
MICHIGAN CITY     78      40/ 11/ 12   N/A
BURNS HARBOR      81      70/ 11/ 12 1008.8R
SAINT JOSEPH      79     360/  7/  9 1009.8
SOUTH LAKE BUOY   74 72  360/  4/  6 1008.4          0
4 MI NW BRIDGMAN  77 76   60/ 10/ 12 1007.9F         1
MICHIGAN CITY     78 78   80/  8/ 10   N/A           1

$$
&&




USA.gov is the U.S. government's official web portal to all federal, state and local government web resources and services.